This is the latest recevied weather packets stored in our database for station/object F1GZH-2. If no packets are shown the sender has not sent any weather packets the latest 10 day(s).
| Time | Temp. | Humidity | Pressure | Rain* | Wind** | Luminosity | Snow |
|---|---|---|---|---|---|---|---|
| 1778171379 | 25° C | 53% | 1020.7 hPa | 0 mm | - | - | - |
| 1778170177 | 20.56° C | 65% | 1020.8 hPa | 0 mm | - | - | - |
| 1778168976 | 18.33° C | 69% | 1020.8 hPa | 0 mm | - | - | - |
| 1778167775 | 16.67° C | 72% | 1020.8 hPa | 0 mm | - | - | - |
| 1778166574 | 15.56° C | 76% | 1021.1 hPa | 0 mm | - | - | - |
| 1778165373 | 15° C | 75% | 1021.1 hPa | 0 mm | - | - | - |
| 1778164172 | 15° C | 77% | 1021.3 hPa | 0 mm | - | - | - |
| 1778162971 | 15° C | 77% | 1021.4 hPa | 0 mm | - | - | - |
| 1778161770 | 14.44° C | 78% | 1021.6 hPa | 0 mm | - | - | - |
| 1778160569 | 13.33° C | 78% | 1021.6 hPa | 0 mm | - | - | - |
| 1778159367 | 12.78° C | 78% | 1021.5 hPa | 0 mm | - | - | - |
| 1778158166 | 13.33° C | 78% | 1021.5 hPa | 0 mm | - | - | - |
| 1778156965 | 15° C | 77% | 1021.5 hPa | 0 mm | - | - | - |
| 1778155764 | 16.11° C | 75% | 1021.5 hPa | 0 mm | - | - | - |
| 1778154563 | 16.67° C | 76% | 1021.4 hPa | 0 mm | - | - | - |
| 1778153362 | 16.11° C | 77% | 1021.6 hPa | 0 mm | - | - | - |
| 1778153362 | 16.11° C | 77% | 1021.6 hPa | 0 mm | - | - | - |
| 1778152161 | 14.44° C | 71% | 1021.5 hPa | 0 mm | - | - | - |
| 1778150959 | 13.33° C | 72% | 1021.6 hPa | 0 mm | - | - | - |
| 1778149758 | 14.44° C | 73% | 1021.5 hPa | 0 mm | - | - | - |
| 1778148557 | 16.67° C | 72% | 1021.5 hPa | 0 mm | - | - | - |
| 1778147356 | 16.11° C | 45% | 1021.4 hPa | 0 mm | - | - | - |
| 1778146155 | 13.89° C | 18% | 1021.3 hPa | 0 mm | - | - | - |
| 1778144954 | 12.78° C | 10% | 1021.3 hPa | 0 mm | - | - | - |
| 1778143753 | 12.22° C | 10% | 1021.1 hPa | 0 mm | - | - | - |
* Rain latest hour (hover to see other rain measurements)
** Current wind speed in m/s (hover to see current wind gust speed)